sat.trackr.live / text

‹ back to catalog

STARLINK-30152

NORAD 56828 · 2023-079F

PAYLOAD ACTIVE UNKNOWN

§ Identity

Operator
Country
US
Launch date
2023-06-04
Launch site
AFETR
Launch vehicle
Mass (kg)
RCS (m²)

Purposes: comms

External: N2YO · Heavens-Above · Gunter

§ Orbital elements

Epoch: 2026-09-20T21:47:40.579584Z

Period
94.27 min
Inclination
43.0037°
Eccentricity
0.0001494
Mean motion
15.27584499 rev/d
Perigee alt
482.0 km
Apogee alt
484.1 km
Semi-major
6,861.2 km
B*
2.8938e-5
RAAN
84.6262°
Arg perigee
267.4313°
Mean anomaly
92.6367°
Rev number
18,274

§ Raw data

STARLINK-301521 56828U 23079F   26263.90810856  .00000534  00000+0  28938-4 0  99912 56828  43.0037  84.6262 0001494 267.4313  92.6367 15.27584499182749

JSON: /api/v1/satellites/56828 · /tle

For live sub-satellite position, see the globe view (requires WebGL).

§ Visibility from observer

Set your observer location to see the next 7 days of passes ≥ 10°. The values pass through the URL so the page stays shareable.

No JS? Fill the form by hand. The geolocation button needs JavaScript.